Location: Maccacari
(45.1333°N, 11.1333°E)
Time: 08:19:53
(UTC+00:00)

USA 234 - Pass Details

Date: 18 September 2020
Orbit: 1102 x 1106 km, 123.0° (Epoch: 16 October)

Event Time Altitude Azimuth Distance (km) Brightness Sun altitude
Rises 18:33:44 0° 54° (NE) 3,927 5.8 -13.6°
Reaches altitude 10° 18:36:24 10° 61° (ENE) 2,966 5.1 -14.1°
Maximum altitude 18:42:32 42° 131° (SE) 1,534 3.6 -15.1°
Drops below altitude 10° 18:48:39 10° 200° (SSW) 2,955 5.5 -16.1°
Sets 18:51:17 0° 207° (SSW) 3,910 6.3 -16.6°
